Jennings, LA

6:56 PM CST on December 15, 2019 (GMT -0600)
Jennings

Weather History for K3R7 - November, 2019

Change the Weather History Date:

Monday, November 18, 2019

  Actual Average (KCWF) Record (KCWF)
Temperature  
Mean Temperature 56 °F -  
Max Temperature 70 °F 69 °F 82 °F (2010)
Min Temperature 41 °F 53 °F 30 °F (2014)
Degree Days  
Heating Degree Days 10    
Growing Degree Days 6 (Base 50)    
Moisture  
Dew Point 44 °F    
Average Humidity 73    
Maximum Humidity 95    
Minimum Humidity 37    
Precipitation  
Precipitation 0.00 in - - ()
Sea Level Pressure  
Sea Level Pressure 29.95 in    
Wind  
Wind Speed 2 mph (West)    
Max Wind Speed 12 mph    
Max Gust Speed 17 mph    
Visibility 10 miles    
Events      
Averages and records for this station are not official NWS values.
T = Trace of Precipitation, MM = Missing Value Source: NWS Daily Summary

Daily Weather History Graph

Daily Weather History Graph

Search for Another Location

Airport or City:

Astronomy

Nov. 18, 2019 Rise Set
Actual Time 6:38 AM CST 5:12 PM CST
Civil Twilight 6:12 AM CST 5:38 PM CST
Nautical Twilight 5:43 AM CST 6:07 PM CST
Astronomical Twilight 5:15 AM CST 6:36 PM CST
Moon 10:59 PM CST (11/18) 12:07 PM CST (11/18)
Length of Visible Light 11h 25m
Length of Day
10h 34m
Waning Gibbous, 63% of the Moon is Illuminated
Nov 18
Waning Gibbous
Nov 19
Last Quarter
Nov 26
New
Dec 4
First Quarter
Dec 11
Full

Hourly Weather History & Observations

Time (CST) Temp. Dew Point Humidity Pressure Visibility Wind Dir Wind Speed Gust Speed Precip Events Conditions
12:15 AM 42.4 °F 38.3 °F 85% 29.99 in 10.0 mi Calm Calm - N/A   Clear
12:35 AM 42.4 °F 39.0 °F 88% 29.99 in 10.0 mi Calm Calm - N/A   Clear
12:55 AM 41.9 °F 39.0 °F 90% 30.00 in 10.0 mi Calm Calm - N/A   Clear
1:15 AM 41.7 °F 38.7 °F 89% 29.99 in 10.0 mi Calm Calm - N/A   Clear
1:35 AM 41.9 °F 39.4 °F 91% 29.99 in 10.0 mi Calm Calm - N/A   Clear
1:55 AM 41.7 °F 39.4 °F 91% 29.99 in 10.0 mi Calm Calm - N/A   Clear
2:15 AM 42.1 °F 38.8 °F 88% 29.99 in 10.0 mi Calm Calm - N/A   Clear
2:35 AM 42.8 °F 39.2 °F 87% 29.98 in 10.0 mi Calm Calm - N/A   Clear
2:55 AM 42.6 °F 39.7 °F 90% 29.98 in 10.0 mi Calm Calm - N/A   Clear
3:35 AM 41.4 °F 39.2 °F 92% 29.98 in 10.0 mi Calm Calm - N/A   Clear
3:55 AM 41.2 °F 39.4 °F 93% 29.97 in 10.0 mi Calm Calm - N/A   Clear
4:15 AM 41.4 °F 39.6 °F 93% 29.97 in 10.0 mi Calm Calm - N/A   Clear
4:35 AM 41.2 °F 39.2 °F 93% 29.97 in 10.0 mi Calm Calm - N/A   Clear
4:55 AM 41.4 °F 39.6 °F 93% 29.97 in 10.0 mi Calm Calm - N/A   Clear
5:35 AM 42.1 °F 40.3 °F 93% 29.97 in 10.0 mi Calm Calm - N/A   Mostly Cloudy
5:55 AM 42.4 °F 41.0 °F 95% 29.98 in 10.0 mi Calm Calm - N/A   Scattered Clouds
6:15 AM 42.4 °F 41.0 °F 95% 29.98 in 10.0 mi Calm Calm - N/A   Mostly Cloudy
6:35 AM 44.4 °F 42.8 °F 94% 29.98 in 10.0 mi Calm Calm - N/A   Overcast
6:55 AM 45.9 °F 43.7 °F 92% 29.99 in 10.0 mi Calm Calm - N/A   Overcast
7:15 AM 47.1 °F 43.7 °F 88% 29.99 in 10.0 mi Calm Calm - N/A   Overcast
7:35 AM 48.0 °F 44.6 °F 88% 29.99 in 10.0 mi Calm Calm - N/A   Overcast
7:55 AM 49.1 °F 45.5 °F 87% 29.99 in 10.0 mi Calm Calm - N/A   Overcast
8:15 AM 50.9 °F 45.1 °F 81% 29.99 in 10.0 mi Calm Calm - N/A   Mostly Cloudy
8:35 AM 52.3 °F 45.0 °F 76% 30.00 in 10.0 mi Calm Calm - N/A   Scattered Clouds
8:55 AM 55.0 °F 47.7 °F 76% 30.00 in 10.0 mi SW 4.6 mph - N/A   Clear
9:15 AM 57.6 °F 48.4 °F 71% 30.00 in 10.0 mi SW 4.6 mph - N/A   Clear
9:35 AM 59.2 °F 49.6 °F 71% 30.00 in 10.0 mi West 4.6 mph - N/A   Clear
9:55 AM 60.4 °F 50.2 °F 69% 30.00 in 10.0 mi West 3.5 mph - N/A   Clear
10:15 AM 61.7 °F 51.3 °F 69% 29.99 in 10.0 mi WNW 4.6 mph - N/A   Clear
10:35 AM 63.7 °F 51.6 °F 65% 29.99 in 10.0 mi SSW 4.6 mph - N/A   Clear
11:15 AM 66.2 °F 51.1 °F 58% 29.98 in 10.0 mi SW 6.9 mph - N/A   Clear
11:35 AM 67.1 °F 51.1 °F 56% 29.96 in 10.0 mi SW 3.5 mph - N/A   Clear
11:55 AM 67.8 °F 50.9 °F 55% 29.95 in 10.0 mi WSW 5.8 mph - N/A   Clear
12:15 PM 68.2 °F 50.7 °F 54% 29.94 in 10.0 mi SW 6.9 mph - N/A   Scattered Clouds
12:35 PM 69.6 °F 50.9 °F 51% 29.92 in 10.0 mi NW 10.4 mph - N/A   Overcast
12:55 PM 68.9 °F 49.1 °F 49% 29.91 in 10.0 mi WNW 10.4 mph - N/A   Scattered Clouds
1:35 PM 69.8 °F 48.2 °F 46% 29.89 in 10.0 mi WNW 11.5 mph - N/A   Clear
1:55 PM 70.3 °F 46.2 °F 42% 29.89 in 10.0 mi West 9.2 mph - N/A   Clear
2:15 PM 70.3 °F 43.2 °F 37% 29.89 in 10.0 mi NW 10.4 mph - N/A   Clear
2:35 PM 70.0 °F 46.0 °F 42% 29.88 in 10.0 mi WNW 10.4 mph 17.3 mph N/A   Clear
3:15 PM 69.8 °F 45.0 °F 41% 29.88 in 10.0 mi WNW 8.1 mph - N/A   Clear
3:35 PM 69.3 °F 43.7 °F 40% 29.88 in 10.0 mi WNW 6.9 mph - N/A   Clear
3:55 PM 68.9 °F 45.3 °F 43% 29.88 in 10.0 mi NW 5.8 mph - N/A   Clear
4:15 PM 68.2 °F 44.1 °F 42% 29.88 in 10.0 mi NW 6.9 mph - N/A   Clear
4:35 PM 67.3 °F 44.2 °F 43% 29.88 in 10.0 mi WNW 6.9 mph - N/A   Clear
5:15 PM 61.9 °F 44.1 °F 52% 29.89 in 10.0 mi WNW 4.6 mph - N/A   Clear
5:35 PM 61.0 °F 44.8 °F 55% 29.89 in 10.0 mi WNW 4.6 mph - N/A   Clear
5:55 PM 60.3 °F 44.8 °F 57% 29.90 in 10.0 mi Calm Calm - N/A   Clear
6:15 PM 57.6 °F 45.5 °F 64% 29.90 in 10.0 mi West 3.5 mph - N/A   Clear
6:35 PM 55.8 °F 44.8 °F 67% 29.91 in 10.0 mi Calm Calm - N/A   Clear
6:55 PM 54.1 °F 45.7 °F 73% 29.92 in 10.0 mi Calm Calm - N/A   Clear
7:35 PM 54.3 °F 43.9 °F 68% 29.93 in 10.0 mi North - - N/A   Clear
7:55 PM 52.9 °F 43.7 °F 71% 29.93 in 10.0 mi Calm Calm - N/A   Clear
8:15 PM 51.1 °F 43.7 °F 76% 29.94 in 10.0 mi Calm Calm - N/A   Clear
8:35 PM 50.9 °F 43.7 °F 76% 29.94 in 10.0 mi Calm Calm - N/A   Clear
8:55 PM 50.4 °F 43.5 °F 77% 29.95 in 10.0 mi Calm Calm - N/A   Clear
9:15 PM 50.0 °F 43.3 °F 78% 29.94 in 10.0 mi Calm Calm - N/A   Clear
9:35 PM 46.6 °F 43.0 °F 87% 29.95 in 10.0 mi Calm Calm - N/A   Clear
9:55 PM 47.8 °F 42.8 °F 83% 29.95 in 10.0 mi Calm Calm - N/A   Clear
10:35 PM 46.6 °F 42.8 °F 87% 29.96 in 10.0 mi Calm Calm - N/A   Clear
10:55 PM 46.8 °F 42.3 °F 84% 29.95 in 10.0 mi Calm Calm - N/A   Clear
11:35 PM 46.0 °F 41.7 °F 85% 29.95 in 10.0 mi Calm Calm - N/A   Clear
11:55 PM 45.5 °F 42.1 °F 88% 29.95 in 10.0 mi Calm Calm - N/A   Clear